User: anonymous   Login
Location: Ostrava
(49.8330°N, 18.2830°E)
Time: 13:09:22
(UTC+01:00)
Language:

Cosmos 2221 - Orbit

View from above orbital plane
View from above orbital plane
View from above satellite
View from above satellite

Ground track
Ground track

The orbit data is extracted from the following two-line orbital elements,

1 22236U 92080A   14352.15192981  .00001623  00000-0  18072-3 0  3330
2 22236 082.5076 199.9789 0018039 140.1474 220.1071 14.86397622191764
Epoch (UTC): 18 December 2014 03:38:46
Eccentricity: 0.0018039
inclination: 82.5076°
perigee height: 596 km
apogee height: 622 km
right ascension of ascending node: 199.9789°
argument of perigee: 140.1474°
revolutions per day: 14.86397622
mean anomaly at epoch: 220.1071°
orbit number at epoch: 19176

The dashed part of the orbit path shows where the satellite is in the earth's shadow,  

DLR